Location: Bois de la Silve
(44.4667°N, 6.7833°E)
Time: 04:33:09
(UTC+00:00)

NPP - Pass Details

Date: 14 July 2020
Orbit: 826 x 828 km, 98.7° (Epoch: 06 August)

Event Time Altitude Azimuth Distance (km) Brightness Sun altitude
Rises 01:18:38 0° 14° (NNE) 3,376 8.3 -20.1°
Reaches altitude 10° 01:21:00 10° 16° (NNE) 2,438 7.3 -19.9°
Maximum altitude 01:26:25 81° 104° (ESE) 842 3.6 -19.5°
Enters shadow 01:28:50 34° 188° (S) 1,327 4.2 -19.3°
